Location: Mohawk View
(42.7837°N, 73.7885°W)
Time: 00:55:50
(UTC+00:00)

Cosmos 2278 Rocket - Pass Details

Date: 17 June 2021
Orbit: 840 x 847 km, 71.0° (Epoch: 02 August)

Event Time Altitude Azimuth Distance (km) Brightness Sun altitude
Rises 03:12:58 0° 342° (NNW) 3,409 6.9 -19.7°
Reaches altitude 10° 03:15:41 10° 352° (N) 2,472 5.7 -19.9°
Maximum altitude 03:20:45 32° 55° (NE) 1,407 3.4 -20.3°
Enters shadow 03:23:36 21° 102° (ESE) 1,816 3.6 -20.5°
